Elko, NV

3:10 PM PST on November 20, 2017 (GMT -0800)
Elko Regional

Weather History for KEKO - April, 2013

Change the Weather History Date:

Thursday, April 25, 2013

  Actual Average Record
Temperature  
Mean Temperature 47 °F 47 °F  
Max Temperature 70 °F 62 °F 84 °F (1910)
Min Temperature 23 °F 33 °F 14 °F (1899)
Degree Days  
Heating Degree Days 18 18  
Month to date heating degree days 550 511  
Since 1 July heating degree days 6339 6488  
Cooling Degree Days 0 0  
Month to date cooling degree days 0 0  
Year to date cooling degree days 0 0  
Moisture  
Dew Point 11 °F    
Average Humidity 38    
Maximum Humidity 65    
Minimum Humidity 10    
Precipitation  
Precipitation 0.00 in 0.03 in 0.70 in (1888)
Month to date precipitation 0.48 0.80  
Year to date precipitation 2.20 3.76  
Snow  
Snow 0.00 in 0.10 in 1.40 in (1983)
Month to date snowfall 1.3 2.9  
Since 1 July snowfall 42.2 40.5  
Snow Depth 0.00 in    
Sea Level Pressure  
Sea Level Pressure 30.03 in    
Wind  
Wind Speed 4 mph (WNW)    
Max Wind Speed 20 mph    
Max Gust Speed 26 mph    
Visibility 10 miles    
Events      
T = Trace of Precipitation, MM = Missing Value Source: NWS Daily Summary

Daily Weather History Graph

Daily Weather History Graph

Search for Another Location

Airport or City:

Trip Planner

Search our weather history database for the weather conditions in past years. The results will help you decide how hot, cold, wet, or windy it might be!

Date:

Astronomy

Apr. 25, 2013 Rise Set
Actual Time 5:49 AM PDT 7:33 PM PDT
Civil Twilight 5:19 AM PDT 8:02 PM PDT
Nautical Twilight 4:44 AM PDT 8:38 PM PDT
Astronomical Twilight 4:06 AM PDT 9:16 PM PDT
Moon 7:52 PM PDT (4/25) 5:35 AM PDT (4/25)
Length of Visible Light 14h 43m
Length of Day
13h 44m
Full, 100% of the Moon is Illuminated
Apr 25
Full
Apr 25
Full
May 2
Last Quarter
May 9
New
May 17
First Quarter

Hourly Weather History & Observations

Time (PDT) Temp. Windchill Dew Point Humidity Pressure Visibility Wind Dir Wind Speed Gust Speed Precip Events Conditions
12:56 AM 36.0 °F 33.3 °F 10.0 °F 34% 30.06 in 10.0 mi East 3.5 mph - N/A   Clear
1:56 AM 30.0 °F - 10.9 °F 45% 30.07 in 10.0 mi Calm Calm - N/A   Clear
2:56 AM 30.9 °F 26.2 °F 10.0 °F 42% 30.06 in 10.0 mi East 4.6 mph - N/A   Clear
3:56 AM 26.1 °F - 12.0 °F 55% 30.07 in 10.0 mi Calm Calm - N/A   Clear
4:56 AM 27.0 °F 23.0 °F 10.0 °F 49% 30.06 in 10.0 mi East 3.5 mph - N/A   Clear
5:56 AM 23.0 °F - 12.0 °F 63% 30.08 in 10.0 mi Calm Calm - N/A   Clear
6:56 AM 30.0 °F - 10.0 °F 43% 30.08 in 10.0 mi Calm Calm - N/A   Clear
7:56 AM 37.0 °F - 10.9 °F 34% 30.08 in 10.0 mi Calm Calm - N/A   Clear
8:56 AM 43.0 °F - 10.9 °F 27% 30.06 in 10.0 mi Calm Calm - N/A   Clear
9:56 AM 51.1 °F - 12.9 °F 22% 30.04 in 10.0 mi Calm Calm - N/A   Clear
10:56 AM 55.9 °F - 15.1 °F 20% 30.04 in 10.0 mi Variable 3.5 mph - N/A   Clear
11:56 AM 60.1 °F - 10.9 °F 14% 30.01 in 10.0 mi Variable 4.6 mph - N/A   Clear
12:56 PM 62.1 °F - 10.9 °F 13% 29.99 in 10.0 mi South 5.8 mph - N/A   Clear
1:56 PM 64.0 °F - 10.9 °F 13% 29.99 in 10.0 mi WSW 9.2 mph - N/A   Clear
2:56 PM 66.9 °F - 10.9 °F 11% 29.97 in 10.0 mi NNW 9.2 mph 18.4 mph N/A   Clear
3:56 PM 66.9 °F - 10.9 °F 11% 29.96 in 10.0 mi WSW 8.1 mph - N/A   Clear
4:56 PM 66.9 °F - 8.1 °F 10% 29.97 in 10.0 mi NW 6.9 mph 17.3 mph N/A   Clear
5:56 PM 66.9 °F - 9.0 °F 10% 29.99 in 10.0 mi WNW 9.2 mph - N/A   Clear
6:56 PM 64.9 °F - 10.0 °F 12% 29.98 in 10.0 mi WNW 9.2 mph - N/A   Clear
7:56 PM 55.9 °F - 12.0 °F 18% 30.01 in 10.0 mi NW 9.2 mph - N/A   Clear
8:56 PM 51.1 °F - 12.9 °F 22% 30.05 in 10.0 mi West 3.5 mph - N/A   Clear
9:56 PM 46.9 °F - 12.9 °F 25% 30.06 in 10.0 mi Calm Calm - N/A   Clear
10:56 PM 42.1 °F - 16.0 °F 35% 30.07 in 10.0 mi Calm Calm - N/A   Clear
11:56 PM 42.1 °F - 14.0 °F 32% 30.08 in 10.0 mi Calm Calm - N/A   Clear